User: anonymous   Login
Location: Unspecified
(0.0000°N, 0.0000°E)
Time: 21:19:32
(UTC+02:00)
Language:

YAOGAN 3 - Orbit

View from above orbital plane
View from above orbital plane
View from above satellite
View from above satellite

Ground track
Ground track

The orbit data is extracted from the following two-line orbital elements,

1 32289U 07055A   18171.49387296 -.00000236  00000-0 -23756-4 0  9997
2 32289  98.0054 177.7421 0001299 107.7632 252.3730 14.80899326573241
Epoch (UTC): 20 June 2018 11:51:10
Eccentricity: 0.0001299
inclination: 98.0054°
perigee height: 625 km
apogee height: 627 km
right ascension of ascending node: 177.7421°
argument of perigee: 107.7632°
revolutions per day: 14.80899326
mean anomaly at epoch: 252.3730°
orbit number at epoch: 57324

The dashed part of the orbit path shows where the satellite is in the earth's shadow,  

DLR